Myrtle Beach, SC

12:02 PM EDT on August 31, 2016 (GMT -0400)
Myrtle Beach International

Weather History for KMYR - December, 2013

Change the Weather History Date:

Sunday, December 15, 2013

  Actual Average Record
Temperature  
Mean Temperature 54 °F -  
Max Temperature 66 °F 56 °F 75 °F (2015)
Min Temperature 42 °F 36 °F 19 °F (2010)
Degree Days  
Heating Degree Days 11    
Growing Degree Days 4 (Base 50)    
Moisture  
Dew Point 52 °F    
Average Humidity 82    
Maximum Humidity 94    
Minimum Humidity 63    
Precipitation  
Precipitation 0.01 in - - ()
Sea Level Pressure  
Sea Level Pressure 29.88 in    
Wind  
Wind Speed 10 mph (WNW)    
Max Wind Speed 20 mph    
Max Gust Speed 33 mph    
Visibility 10 miles    
Events      
Averages and records for this station are not official NWS values.
T = Trace of Precipitation, MM = Missing Value Source: NWS Daily Summary

Daily Weather History Graph

Daily Weather History Graph

Search for Another Location

Airport or City:

Trip Planner

Search our weather history database for the weather conditions in past years. The results will help you decide how hot, cold, wet, or windy it might be!

Date:

Astronomy

Dec. 15, 2013 Rise Set
Actual Time 7:13 AM EST 5:08 PM EST
Civil Twilight 6:45 AM EST 5:36 PM EST
Nautical Twilight 6:14 AM EST 6:07 PM EST
Astronomical Twilight 5:43 AM EST 6:38 PM EST
Moon 4:08 PM EST (12/15) 5:31 AM EST (12/15)
Length of Visible Light 10h 51m
Length of Day
9h 55m
Waxing Gibbous, 97% of the Moon is Illuminated
Dec 15
Waxing Gibbous
Dec 17
Full
Dec 25
Last Quarter
Jan 1
New
Jan 7
First Quarter

Hourly Weather History & Observations

Time (EST) Temp. Windchill Dew Point Humidity Pressure Visibility Wind Dir Wind Speed Gust Speed Precip Events Conditions
12:15 AM 66.2 °F - 62.6 °F 88% 29.79 in 10.0 mi WSW 10.4 mph - N/A   Mostly Cloudy
12:35 AM 66.2 °F - 62.6 °F 88% 29.77 in 10.0 mi WSW 9.2 mph - N/A   Overcast
12:55 AM 66.2 °F - 62.6 °F 88% 29.77 in 10.0 mi West 9.2 mph - N/A   Overcast
1:15 AM 66.2 °F - 62.6 °F 88% 29.76 in 10.0 mi WSW 11.5 mph - N/A   Overcast
1:35 AM 64.4 °F - 62.6 °F 94% 29.77 in 9.0 mi West 12.7 mph - 0.01 in   Overcast
1:55 AM 64.4 °F - 60.8 °F 88% 29.78 in 10.0 mi West 13.8 mph 20.7 mph 0.01 in   Overcast
2:15 AM 64.4 °F - 60.8 °F 88% 29.78 in 10.0 mi WNW 8.1 mph - N/A   Overcast
2:35 AM 62.6 °F - 59.0 °F 88% 29.77 in 10.0 mi West 8.1 mph - N/A   Overcast
2:55 AM 62.6 °F - 57.2 °F 82% 29.79 in 10.0 mi West 10.4 mph - N/A   Overcast
3:15 AM 62.6 °F - 57.2 °F 82% 29.81 in 10.0 mi WNW 19.6 mph 33.4 mph N/A   Overcast
3:35 AM 60.8 °F - 55.4 °F 82% 29.80 in 10.0 mi West 15.0 mph 24.2 mph N/A   Overcast
3:55 AM 60.8 °F - 55.4 °F 82% 29.80 in 10.0 mi WNW 16.1 mph 26.5 mph N/A   Mostly Cloudy
4:15 AM 60.8 °F - 53.6 °F 77% 29.80 in 10.0 mi WNW 12.7 mph 18.4 mph N/A   Mostly Cloudy
4:35 AM 59.0 °F - 53.6 °F 82% 29.80 in 10.0 mi WNW 10.4 mph 16.1 mph N/A   Overcast
4:55 AM 59.0 °F - 53.6 °F 82% 29.80 in 10.0 mi WNW 10.4 mph - N/A   Overcast
5:15 AM 57.2 °F - 51.8 °F 82% 29.80 in 10.0 mi West 9.2 mph 16.1 mph N/A   Overcast
5:35 AM 57.2 °F - 51.8 °F 82% 29.80 in 10.0 mi West 8.1 mph - N/A   Overcast
5:55 AM 59.0 °F - 51.8 °F 77% 29.80 in 10.0 mi WSW 10.4 mph 18.4 mph N/A   Overcast
6:53 AM 57.2 °F - 51.8 °F 82% 29.83 in 10.0 mi WSW 12.7 mph - N/A   Overcast
8:45 AM 57.2 °F - 51.8 °F 82% 29.86 in 10.0 mi West 9.2 mph - N/A   Overcast
9:53 AM 57.2 °F - 51.8 °F 82% 29.88 in 10.0 mi West 9.2 mph - N/A   Overcast
10:53 AM 57.2 °F - 51.8 °F 82% 29.90 in 10.0 mi West 9.2 mph - N/A   Overcast
11:50 AM 57.2 °F - 48.2 °F 72% 29.89 in 10.0 mi WNW 12.7 mph - N/A   Mostly Cloudy
12:47 PM 57.2 °F - 46.4 °F 67% 29.89 in 10.0 mi West 13.8 mph 20.7 mph N/A   Mostly Cloudy
1:55 PM 57.2 °F - 44.6 °F 63% 29.88 in 10.0 mi WNW 11.5 mph 17.3 mph N/A   Mostly Cloudy
3:45 PM 55.4 °F - 44.6 °F 67% 29.91 in 10.0 mi NNW 9.2 mph - N/A   Mostly Cloudy
4:50 PM 53.6 °F - 44.6 °F 72% 29.95 in 10.0 mi WNW 8.1 mph - N/A   Scattered Clouds
5:45 PM 51.8 °F - 44.6 °F 76% 29.96 in 10.0 mi NNW 5.8 mph - N/A   Scattered Clouds
6:45 PM 48.2 °F - 44.6 °F 87% 30.00 in 10.0 mi WNW 4.6 mph - N/A   Clear
7:45 PM 48.2 °F - 42.8 °F 82% 30.03 in 10.0 mi West 6.9 mph - N/A   Clear
8:45 PM 46.4 °F 42.9 °F 42.8 °F 87% 30.05 in 10.0 mi West 6.9 mph - N/A   Clear
9:45 PM 46.4 °F 42.9 °F 42.8 °F 87% 30.08 in 10.0 mi WNW 6.9 mph - N/A   Clear
11:15 PM 44.6 °F 41.4 °F 39.2 °F 81% 30.11 in 10.0 mi NW 5.8 mph - N/A   Clear
11:35 PM 42.8 °F 40.1 °F 37.4 °F 81% 30.12 in 10.0 mi NW 4.6 mph - N/A   Clear
11:55 PM 42.8 °F 38.6 °F 39.2 °F 87% 30.13 in 10.0 mi WNW 6.9 mph - N/A   Clear